Regional Weather Roundup
Issued by NWS

Home | Current Version | Previous Version | Graphics & Text | Print | Product List | Glossary Off
Versions: 1 2 3 4 5 6 7 8 9 10 11 12 13 14 15 16 17 18 19 20 21 22 23 24 25 26 27 28 29 30 31 32 33 34 35 36 37 38 39 40 41 42 43 44 45 46 47 48 49 50

000
ASUS43 KMPX 170010
RWRMN
WEATHER ROUNDUP FOR MINNESOTA
NATIONAL WEATHER SERVICE TWIN CITIES/CHANHASSEN MN
700 PM CDT MON OCT 16 2017


NOTE: "FAIR" INDICATES FEW OR NO CLOUDS BELOW 12,000 FEET WITH NO
SIGNIFICANT WEATHER AND/OR OBSTRUCTIONS TO VISIBILITY. N/A MEANS
CURRENT SKY AND/OR WEATHER CONDITIONS ARE NOT AVAILABLE.

MNZ060>063-068>070-170100-
   Twin Cities Metro

CITY           SKY/WX    TMP DP  RH WIND       PRES   REMARKS
TWIN CITIES    PTCLDY    62  38  40 S7        30.00F
6HR MIN TEMP:  58; 6HR MAX TEMP:  66;

ST PAUL        CLEAR     56  40  55 S6        30.00F
CRYSTAL        CLEAR     59  35  40 S7        29.98S
BLAINE         PTCLDY    57  37  47 S6        29.99S
LAKEVILLE      CLEAR     55  37  50 S5        30.01S
EDEN PRAIRIE   CLEAR     59  37  44 S8        29.99S
6HR MIN TEMP:  59; 6HR MAX TEMP:  67;

SOUTH ST PAUL  CLEAR     59  37  43 S7        30.00S
LAKE ELMO      FAIR      57  37  47 S3        30.01S
$$
MNZ001>005-007-008-013>017-022>024-027-028-170100-
   Northwest Minnesota

CITY           SKY/WX    TMP DP  RH WIND       PRES   REMARKS
BEMIDJI        CLEAR     58  38  48 SW3       29.86R
HALLOCK        CLOUDY    61  34  36 W6        29.81S
ROSEAU           N/A     61  39  44 W5        29.81R
WARROAD        CLOUDY    59  39  47 SW6       29.80R
THIEF RVR FALL CLEAR     59  36  42 W10       29.86R
CROOKSTON      CLEAR     55  36  47 W8        29.86R
FOSSTON        CLEAR     57  34  41 W5        29.86S
DETROIT LAKES  CLEAR     61  37  41 SW6       29.90S
MOORHEAD       CLEAR     63  43  48 SW7       29.88S
PARK RAPIDS    CLEAR     55  39  54 SW9       29.88S
MAHNOMEN       FAIR      56  40  53 W7        29.87R
$$
MNZ006-009>011-018-025>026-170100-
   North Central Minnesota

CITY           SKY/WX    TMP DP  RH WIND       PRES   REMARKS
BAUDETTE       CLOUDY    58  36  43 W8        29.80R
FLAG ISLAND    CLOUDY    59  36  41 W10       29.75S
INTL FALLS     CLEAR     54  35  48 S3        29.79S
6HR MIN TEMP:  53; 6HR MAX TEMP:  63;

WASKISH        CLOUDY    59  41  51 SW12      29.82R
BIG FORK       CLOUDY    57  37  47 SW10G16   29.85S
LONGVILLE      CLEAR     57  37  47 S7        29.88F
GRAND RAPIDS   CLEAR     58  37  45 S10       29.90S
CRANE LAKE     CLOUDY    55  34  44 S6        29.83S
ORR            CLOUDY    55  30  38 S5        29.82S
COOK           CLOUDY    55  36  47 S3        29.86S
WALKER         FAIR      58  38  48 S6        29.87S
$$
MNZ012-019>021-037-170100-
   Northeast Minnesota

CITY           SKY/WX    TMP DP  RH WIND       PRES   REMARKS
DULUTH         PTCLDY    54  35  48 SW15      29.91F
6HR MIN TEMP:  54; 6HR MAX TEMP:  59;

ELY            CLEAR     54  32  43 SW8       29.86S
HIBBING        CLEAR     54  34  46 S7        29.88S
EVELETH        CLEAR     54  25  32 SW9       29.90R
DULUTH HARBOR  CLEAR     57  39  51 S12       29.92F
TWO HARBORS    CLEAR     55  43  62 SW7       29.89F
GRAND MARAIS     N/A     50  44  80 CALM      29.90F
G MARAIS ARPRT CLEAR     46  36  66 S10G18    29.90F
$$
MNZ029>031-032-039>041-046>048-054>057-064-170100-
   West Central Minnesota

CITY           SKY/WX    TMP DP  RH WIND       PRES   REMARKS
FERGUS FALLS   CLEAR     57  41  54 SW8       29.91R
WHEATON        CLEAR     61  39  44 SW9       29.94R
MORRIS         CLEAR     57  43  58 SW8       29.93R
ALEXANDRIA     CLEAR     60  39  45 SW9       29.94S
ELBOW LAKE     FAIR      53  40  62 SW6       29.93R
WADENA         CLEAR     57  39  51 SW6       29.90S
GLENWOOD       CLEAR     55  39  54 SW7       29.94F
APPLETON       CLEAR     61  37  41 SW7       29.94S
BENSON         CLEAR     61  37  41 SW6       29.95F
ORTONVILLE     CLOUDY    61  39  44 NW3       29.93F
MADISON        CLEAR     64  39  39 SW3       29.95S
WILLMAR        FAIR      59  39  47 CALM      29.97S
$$
MNZ033>034-036-042>043-049>051-058-059-170100-
   Central Minnesota

CITY           SKY/WX    TMP DP  RH WIND       PRES   REMARKS
ST CLOUD       CLEAR     57  39  51 S8        29.95F
6HR MIN TEMP:  57; 6HR MAX TEMP:  65;

SAUK CENTRE    FAIR      55  40  58 S6        29.94S
PAYNESVILLE    CLEAR     61  39  44 S7        29.96S
AITKIN         CLEAR     54  37  54 S6        29.90F
PINE RIVER     CLEAR     54  37  54 CALM      29.94R
BRAINERD       CLEAR     55  38  52 S8        29.92S
STAPLES        CLEAR     55  36  47 S7        29.91S
LONG PRAIRIE   FAIR      54  37  54 SE5       29.93S
LITTLE FALLS   CLEAR     55  30  38 S5        29.93F
LITCHFIELD     CLEAR     61  39  44 CALM      29.97F
BUFFALO        CLEAR     61  35  37 S6        29.98F
MAPLE LAKE     CLEAR     60  40  47 S3        29.98S
HUTCHINSON     CLOUDY    58  39  50 CALM      29.99S
$$
MNZ037-044-045-052-053-170100-
   East Central Minnesota

CITY           SKY/WX    TMP DP  RH WIND       PRES   REMARKS
PRINCETON      CLEAR     57  39  51 SE5       29.96F
MORA           CLEAR     55  37  50 S5        29.97S
CAMBRIDGE      CLEAR     55  39  54 S7        29.96F
RUSH CITY      MOCLDY    56  37  50 S6        29.96F
MOOSE LAKE     CLEAR     52  36  54 S6        29.92F
HINCKLEY       FAIR      54  37  54 S5        29.96S
CLOQUET        CLEAR     54  34  47 S8        29.92F
MCGREGOR       CLEAR     54  37  54 S7        29.92F
$$
MNZ071>073-080-081-089-090-097-098-170100-
   Southwest Minnesota

CITY           SKY/WX    TMP DP  RH WIND       PRES   REMARKS
MONTEVIDEO     CLOUDY    57  34  41 SW5       29.96S
GRANITE FALLS  CLEAR     60  40  48 S7        29.98S
CANBY          PTCLDY    64  38  38 SW5       29.97S
MARSHALL       CLOUDY    62  39  42 SW10      29.97F
REDWOOD FALLS  CLOUDY    61  37  41 S9        29.97F
OLIVIA         CLEAR     59  37  44 S7        29.97S
PIPESTONE      CLOUDY    61  37  41 SW5       30.00S
WORTHINGTON    CLEAR     62  38  40 S7        30.03S
JACKSON        CLEAR     59  36  41 S9        30.03F
TRACY          CLEAR     62  40  44 SW7       29.99F
SLAYTON        CLEAR     61  38  42 S6        30.02S
$$
MNZ065>067-074>077-082>085-091>093-170100-
   South Central Minnesota

CITY           SKY/WX    TMP DP  RH WIND       PRES   REMARKS
MANKATO        CLEAR     60  36  40 S6        30.02F
NEW ULM        CLOUDY    61  36  39 S8        30.00F
ST JAMES       CLOUDY    61  37  41 S6        30.03S
FAIRMONT       CLOUDY    60  39  45 S9        30.04S
GLENCOE        CLEAR     60  37  42 S5        29.98S
FARIBAULT      CLEAR     61  37  41 S7        30.03S
OWATONNA       CLEAR     59  37  44 S8        30.04F
WASECA         CLEAR     55  36  47 S6        30.05S
ALBERT LEA     CLEAR     64  36  34 S8        30.06S
$$
MNZ078>079-086>088-094>096-170100-
   Southeast Minnesota

CITY           SKY/WX    TMP DP  RH WIND       PRES   REMARKS
ROCHESTER      CLEAR     54  39  57 S9        30.07F
6HR MIN TEMP:  54; 6HR MAX TEMP:  64;

RED WING       CLEAR     61  32  33 S5        30.02S
STANTON        CLEAR     59  37  43 S5        30.01S
DODGE CENTER   CLEAR     55  37  50 S8        30.06S
WINONA         CLEAR     54  41  62 CALM      30.08F
AUSTIN         CLEAR     57  36  44 S8        30.07F
PRESTON        CLEAR     55  35  46 S7        30.09F
$$
ABBREVIATIONS USED IN REMARKS
   TC - TEMPERATURES IN CELSIUS
  WCI - WIND CHILL INDEX
   HX - HEAT INDEX
  VSB - VISIBILITY
$$




USA.gov is the U.S. government's official web portal to all federal, state and local government web resources and services.